Location: Newark
(49.8348°N, 24.0280°E)
Time: 21:58:51
(UTC+00:00)

Transit 2A - Pass Details

Date: 23 January 2020
Orbit: 600 x 959 km, 66.7° (Epoch: 19 February)

Event Time Altitude Azimuth Distance (km) Brightness Sun altitude
Rises 02:32:27 0° 325° (NW) 2,928 - -34.5°
Reaches altitude 10° 02:34:44 10° 332° (NNW) 2,052 - -34.2°
Maximum altitude 02:39:12 47° 47° (NE) 903 - -33.5°
Exits shadow 02:40:55 33° 98° (E) 1,165 7.3 -33.2°
Drops below altitude 10° 02:44:05 10° 122° (ESE) 2,234 8.9 -32.7°
Sets 02:46:39 0° 128° (SE) 3,216 9.8 -32.3°
